Lawrenceville, IL

5:02 AM CDT on October 20, 2017 (GMT -0500)
Lawrenceville-Vincennes International

Weather History for KLWV - November, 2012

Change the Weather History Date:

Thursday, November 22, 2012

  Actual Average Record
Temperature  
Mean Temperature 49 °F 44 °F  
Max Temperature 65 °F 52 °F 73 °F (1990)
Min Temperature 32 °F 35 °F 17 °F (2000)
Degree Days  
Heating Degree Days 16 21  
Month to date heating degree days 436 373  
Since 1 July heating degree days 828 670  
Cooling Degree Days 0 0  
Month to date cooling degree days 0 0  
Year to date cooling degree days 1707 1386  
Moisture  
Dew Point 40 °F    
Average Humidity 72    
Maximum Humidity 100    
Minimum Humidity 44    
Precipitation  
Precipitation 0.16 in 0.14 in 1.06 in (1979)
Month to date precipitation 1.21 2.84  
Year to date precipitation 28.13 39.36  
Sea Level Pressure  
Sea Level Pressure 30.12 in    
Wind  
Wind Speed 10 mph (South)    
Max Wind Speed 21 mph    
Max Gust Speed 33 mph    
Visibility 3 miles    
Events Fog , Rain    
T = Trace of Precipitation, MM = Missing Value Source: NWS Daily Summary

Daily Weather History Graph

Daily Weather History Graph

Search for Another Location

Airport or City:

Trip Planner

Search our weather history database for the weather conditions in past years. The results will help you decide how hot, cold, wet, or windy it might be!

Date:

Astronomy

Nov. 22, 2012 Rise Set
Actual Time 6:40 AM CST 4:32 PM CST
Civil Twilight 6:12 AM CST 5:01 PM CST
Nautical Twilight 5:39 AM CST 5:33 PM CST
Astronomical Twilight 5:07 AM CST 6:05 PM CST
Moon 1:14 PM CST (11/22) 1:03 AM CST (11/22)
Length of Visible Light 10h 49m
Length of Day
9h 51m
Waxing Gibbous, 71% of the Moon is Illuminated
Nov 22
Waxing Gibbous
Nov 28
Full
Dec 6
Last Quarter
Dec 13
New
Dec 19
First Quarter

Hourly Weather History & Observations

Time (CST) Temp. Windchill Dew Point Humidity Pressure Visibility Wind Dir Wind Speed Gust Speed Precip Events Conditions
12:01 AM 37.4 °F - 35.6 °F 93% 30.20 in 0.2 mi Calm Calm - N/A Fog Fog
12:53 AM 36.0 °F - 34.0 °F 93% 30.20 in 0.2 mi Calm Calm - N/A Fog Fog
1:43 AM 35.6 °F - 33.8 °F 93% 30.20 in 0.2 mi Calm Calm - N/A Fog Fog
1:53 AM 36.0 °F - 34.0 °F 93% 30.21 in 0.2 mi Calm Calm - N/A Fog Fog
2:11 AM 35.6 °F - 33.8 °F 93% 30.20 in 0.2 mi Calm Calm - N/A Fog Fog
2:32 AM 35.6 °F - 33.8 °F 93% 30.19 in 0.2 mi Calm Calm - N/A Fog Fog
2:53 AM 35.1 °F 32.2 °F 33.1 °F 92% 30.19 in 0.2 mi ESE 3.5 mph - N/A Fog Fog
3:53 AM 34.0 °F 31.0 °F 33.1 °F 96% 30.19 in 0.2 mi South 3.5 mph - N/A Fog Fog
4:01 AM 33.8 °F 29.6 °F 33.8 °F 100% 30.18 in 0.2 mi South 4.6 mph - N/A Fog Fog
4:27 AM 33.8 °F 29.6 °F 33.8 °F 100% 30.19 in 0.2 mi South 4.6 mph - N/A Fog Fog
4:53 AM 34.0 °F 29.8 °F 32.0 °F 92% 30.19 in 0.2 mi South 4.6 mph - N/A Fog Fog
5:53 AM 34.0 °F 31.0 °F 32.0 °F 92% 30.19 in 0.2 mi South 3.5 mph - N/A Fog Fog
6:53 AM 35.1 °F 31.0 °F 33.1 °F 92% 30.19 in 0.2 mi South 4.6 mph - 0.01 in Fog Fog
7:00 AM 35.6 °F 31.7 °F 33.8 °F 93% 30.18 in 0.2 mi South 4.6 mph - N/A Fog Fog
7:53 AM 41.0 °F 37.1 °F 39.9 °F 96% 30.19 in 0.5 mi South 5.8 mph - N/A Fog Fog
8:11 AM 44.6 °F 40.2 °F 42.8 °F 93% 30.17 in 1.2 mi South 8.1 mph - N/A   Clear
8:45 AM 48.2 °F - 44.6 °F 87% 30.17 in 2.0 mi South 10.4 mph - N/A   Clear
8:53 AM 50.0 °F - 44.1 °F 80% 30.17 in 2.0 mi South 12.7 mph - N/A   Haze
9:51 AM 57.2 °F - 44.6 °F 63% 30.16 in 3.0 mi South 12.7 mph - N/A   Haze
9:53 AM 57.0 °F - 45.0 °F 64% 30.17 in 3.0 mi South 13.8 mph - N/A   Haze
10:53 AM 60.1 °F - 46.0 °F 60% 30.14 in 3.0 mi SSW 13.8 mph - N/A   Haze
11:53 AM 63.0 °F - 45.0 °F 52% 30.12 in 5.0 mi SSW 13.8 mph - N/A   Haze
12:53 PM 64.0 °F - 43.0 °F 46% 30.09 in 5.0 mi South 20.7 mph 24.2 mph N/A   Haze
1:53 PM 64.0 °F - 43.0 °F 46% 30.06 in 7.0 mi South 17.3 mph 27.6 mph N/A   Clear
2:53 PM 64.0 °F - 43.0 °F 46% 30.05 in 7.0 mi South 13.8 mph - N/A   Clear
3:53 PM 60.1 °F - 45.0 °F 57% 30.04 in 7.0 mi South 13.8 mph - N/A   Clear
4:53 PM 55.9 °F - 44.1 °F 64% 30.04 in 8.0 mi South 10.4 mph - N/A   Clear
5:53 PM 55.9 °F - 44.1 °F 64% 30.03 in 8.0 mi South 11.5 mph - N/A   Clear
6:53 PM 55.9 °F - 43.0 °F 62% 30.01 in 8.0 mi South 11.5 mph - N/A   Clear
7:53 PM 53.1 °F - 43.0 °F 69% 30.01 in 8.0 mi SSE 6.9 mph - N/A   Mostly Cloudy
8:53 PM 57.9 °F - 43.0 °F 58% 30.02 in 7.0 mi SSW 15.0 mph - N/A   Overcast
9:25 PM 55.4 °F - 48.2 °F 77% 30.03 in 2.5 mi WSW 13.8 mph - 0.04 in Rain Rain
9:33 PM 55.4 °F - 48.2 °F 77% 30.03 in 4.0 mi SW 12.7 mph - 0.05 in Rain Light Rain
9:53 PM 55.0 °F - 48.9 °F 80% 30.04 in 4.0 mi WSW 12.7 mph - 0.06 in Rain Light Rain
10:53 PM 53.1 °F - 48.9 °F 86% 30.02 in 5.0 mi SW 5.8 mph - 0.00 in Rain Light Rain
11:53 PM 54.0 °F - 50.0 °F 86% 30.02 in 3.0 mi WSW 13.8 mph - 0.08 in Rain Rain